Torna al catalogo

SL-12 DEB

LostHEO
NORAD 44871·DEBRIS·🇷🇺 Russia

Lanciato Sep 2, 2010 da Baikonur Cosmodrome

Loading…

Prossimi Passaggi (prossime 24 ore)

TLE

ObsoletoSource: Space-Track

Epoca: Jan 12, 2023, 23:31 UTC

1 44871U 10041AL  23012.97997031 -.00001564  00000-0 -87810-2 0  9997
2 44871  65.5561 224.0600 5690253 332.3866   6.4769  4.20153138 51183

Traccia SL-12 DEB in tempo reale con AllMySat

Download on the App Store